Showing default

JILIN-01-08, 43160

Orbit data source: Space-Track

JILIN-01-08, 43160 is a payload satellite owned by Changguang WJ (CN) in SSO that was launched on Fri, 19 Jan 2018 UTC via a CHANG ZHENG 11 launch vehicle from the Jiuquan Satellite Launch Center, China (JSC). Payload-class satellites include a variety of spacecraft equipped with specific instruments for various scientific and technological missions. These include communications satellites like Starlink; space stations such as the ISS; scientific satellites like the Hubble; Earth observation satellites from companies like Planet Labs, Umbra, and HawkEye 360; GPS; miniature CubeSats for education and research; and military/defense satellites.

Loading next visibility...
Identifier
43160, 2018-008F
Orbit
SSO
Country
Flag of CNCN / PRC
Related business
Manufacturer
Changguang WJ
Mission
Operational Commercial Imaging
Bus & Motor
JL-1, Unknown motor
Mass
95 kg wet, 95 kg dry
Launch date (UTC)
2018-01-19 (8 years ago)
Launch vehicle
CHANG ZHENG 11
Launch site
Jiuquan Satellite Launch Center, China (JSC)
Object type
Payload
Rocket body
Debris
Shape & HBR
Box + 2 Pan, 0.8 m
Radar Cross Section
2.000 m², Medium (>0.1 m² and < 1m²)

Expand to show TLE details & history
Last TLE update: 5 hours ago

TLE from 5 hours ago
0 JILIN-01-08
1 43160U 18008F   25260.29013162  .00007338  00000-0  26581-3 0  9996
2 43160  97.2053 282.6761 0005804 348.1845  11.9259 15.28653135423188
Epoch: 2025-09-17T06:57Z
TLE epoch observation values (Epoch: 2025-09-17T06:57:47.371Z)
Latitude
0.00002°
Longitude
-178.23949°
Altitude
479.05 km
Speed
7.628 km/s
True Right ascension
18h 50m 42s
True Declination
0° 00' 00"
Sunlit
Object was in daylight at epoch
Visualization orbit readout
Latitude
Unknown
Longitude
Unknown
Altitude
Unknown
Speed
Unknown
Apparent Right ascension
Unknown
Apparent Declination
Unknown
Sunlit
N/A
Visualization observer readout
Local Sidereal Time
04:43:09
Azimuth
Unknown
Elevation
Unknown
Doppler factor
Unknown
Orbital elements
Apogee altitude
480.762 km
Perigee altitude
472.805 km
Semi-major axis
6,854.92 km
Eccentricity
0.00058
Inclination
97.2053°
RAAN
282.6761°
Arg. of periapsis
348.1845°
True anomaly
11.93965°
Mean anomaly
11.9259°
Eccentric anomaly
11.93278°
Mean motion
3.82419 °/min
Orbital period
94.14 mins
BSTAR
0.00026581
Loading maneuver chart data...
Computing Atmospheric mass density...
Loading historical data...
Loading historical data...
Loading historical data...
Loading historical data...
Loading historical data...
Loading historical data...
Loading historical data...

Documentation

Showing up to 5 results
|